694  
SXUS52 KCHS 260412  
OSOCHS  
 
MARINE OBSERVATIONS  
NATIONAL WEATHER SERVICE CHARLESTON SC  
1200 AM EDT MON OCT 26 2020  
   
..DOWNTOWN CHARLESTON AND HARBOR
 
 
 
CITY SKY/WX TMP DP RH WIND PRES REMARKS  
WATERFRONT PRK N/A 72 70 93 NE7 29.85S  
   
..LAKE MOULTRIE
 
 
 
CITY SKY/WX TMP DP RH WIND PRES REMARKS  
PINOPOLIS N/A 70 68 94 NE9 29.93S  
   
..LAKE AND SUPPLEMENTAL COASTAL OBSERVATIONS
 
 
 
STATION/POSITION TIME TEMP WIND PRES WAVE SWELL  
AIR SEA DIR/SP/G HT/PER HT/PER/DIR  
(UTC) (F) (DEG/KT/KT) (MB) (FT/S) (FT/S/D)  
CHRLSTN HARBOR 0330 72 75 20/ 7/ 8 1016.1S  
FORT PULASKI 0330 73 75 150/ 1/ 1 1016.0R  
SAPELO ISLAND 0300 71 140/ 1 1015.0  
WINYAH BAY 0245 69 20/ 5 1015.0  
LAKE MURRAY 0320 64 40/ 2/ 7 N/A  
ACE BASIN NERRS 0245 71 CALM 1016.0  
 
   
..C-MAN AND BUOY OBSERVATIONS
 
 
 
STATION/POSITION TIME TEMP WIND PRES WAVE SWELL  
AIR SEA DIR/SP/G HT/PER HT/PER/DIR  
(UTC) (F) (DEG/KT/KT) (MB) (FT/S) (FT/S/D)  
BUOY 41004 0350 77 81 30/ 14/ 16 1015.3R  
BUOY 41008 0350 76 77 150/ 2/ 4 1015.1S 3/ 9 3/100/ 9  
FOLLY BEACH CMAN 0300 73 30/ 8/ 9 1016.4R  
PRITCHARDS ISLAN NOT AVBL  
CAPERS NS BUOY 0308 73 75 40/ 12/ 16 1015.7R  
FRIPP NS BUOY 0308 75 75 50/ 8/ 8 1015.3R  
5E ST. MARYS GA 0330 77 77 N/A 3/13 2/ 90/13  
 
 
STATION/POSITION TIME TEMP WIND PRES WAVE SWELL  
AIR SEA DIR/SP/G HT/PER HT/PER/DIR  
(UTC) (F) (DEG/KT/KT) (MB) (FT/S) (FT/S/D)  
FRYING PAN BUOY 0350 74 81 40/ 14/ 17 1014.6F 5/11 3/110/11  
BUOY 41025 0350 77 81 100/ 10/ 14 N/A 7/ 7 7/ 70/ 7  
CAPE LOOKOUT NC 0300 70 360/ 11/ 13 1015.9R  
BUOY 41002 NOT AVBL  
BUOY 41010 0400 79 81 200/ 14/ 17 1014.6  
ST AUGUSTINE FL 0400 79 80 60/ 4/ 5 1015.0S  
 

 
 
 
CLICK HERE TO GO TO PREVIOUS BULLETINS.

The Nexlab SC Page
The Nexlab GA Page Main Text Page